TimeCDT,TemperatureF,Dew PointF,Humidity,Sea Level PressureIn,VisibilityMPH,Wind Direction,Wind SpeedMPH,Gust SpeedMPH,PrecipitationIn,Events,Conditions,WindDirDegrees,DateUTC
12:15 AM,51.8,37.4,58,29.47,10.0,West,13.8,19.6,N/A,,Clear,270,2012-10-18 05:15:00
12:35 AM,51.8,37.4,58,29.47,10.0,West,12.7,25.3,N/A,,Clear,270,2012-10-18 05:35:00
12:55 AM,51.8,37.4,58,29.48,10.0,West,10.4,19.6,N/A,,Clear,270,2012-10-18 05:55:00
1:15 AM,50.0,37.4,62,29.48,10.0,West,9.2,-,N/A,,Clear,260,2012-10-18 06:15:00
1:35 AM,50.0,37.4,62,29.47,10.0,WSW,8.1,-,N/A,,Clear,250,2012-10-18 06:35:00
1:55 AM,50.0,37.4,62,29.47,10.0,WSW,6.9,-,N/A,,Clear,240,2012-10-18 06:55:00
2:15 AM,50.0,37.4,62,29.47,10.0,SW,8.1,-,N/A,,Clear,230,2012-10-18 07:15:00
2:35 AM,50.0,37.4,62,29.46,10.0,SW,8.1,-,N/A,,Scattered Clouds,230,2012-10-18 07:35:00
2:55 AM,50.0,37.4,62,29.45,10.0,SW,8.1,-,N/A,,Overcast,230,2012-10-18 07:55:00
3:15 AM,51.8,35.6,54,29.45,10.0,SW,8.1,-,N/A,,Overcast,230,2012-10-18 08:15:00
3:35 AM,50.0,37.4,62,29.45,10.0,SW,6.9,-,N/A,,Overcast,220,2012-10-18 08:35:00
3:55 AM,50.0,37.4,62,29.44,10.0,SW,8.1,-,N/A,,Overcast,230,2012-10-18 08:55:00
4:15 AM,51.8,35.6,54,29.44,10.0,WSW,9.2,-,N/A,,Overcast,240,2012-10-18 09:15:00
4:35 AM,51.8,35.6,54,29.43,10.0,WSW,11.5,-,N/A,,Overcast,250,2012-10-18 09:35:00
4:55 AM,51.8,33.8,50,29.43,10.0,WSW,12.7,16.1,N/A,,Overcast,250,2012-10-18 09:55:00
5:15 AM,51.8,33.8,50,29.43,10.0,WSW,10.4,-,N/A,,Overcast,250,2012-10-18 10:15:00
5:35 AM,50.0,32.0,50,29.43,10.0,WSW,9.2,-,N/A,,Mostly Cloudy,240,2012-10-18 10:35:00
5:55 AM,48.2,32.0,54,29.43,10.0,WSW,9.2,-,N/A,,Scattered Clouds,240,2012-10-18 10:55:00
6:35 AM,50.0,30.2,47,29.43,10.0,WSW,11.5,-,N/A,,Mostly Cloudy,240,2012-10-18 11:35:00
6:55 AM,50.0,30.2,47,29.42,10.0,WSW,13.8,19.6,N/A,,Overcast,240,2012-10-18 11:55:00
7:15 AM,50.0,30.2,47,29.42,10.0,WSW,11.5,19.6,N/A,,Overcast,240,2012-10-18 12:15:00
7:35 AM,50.0,30.2,47,29.42,10.0,WSW,11.5,18.4,N/A,,Overcast,240,2012-10-18 12:35:00
7:55 AM,50.0,30.2,47,29.42,10.0,WSW,12.7,19.6,N/A,,Overcast,240,2012-10-18 12:55:00
8:15 AM,51.8,30.2,44,29.42,10.0,WSW,16.1,21.9,N/A,,Overcast,250,2012-10-18 13:15:00
8:35 AM,51.8,30.2,44,29.43,10.0,WSW,15.0,23.0,N/A,,Overcast,250,2012-10-18 13:35:00
8:55 AM,51.8,30.2,44,29.43,10.0,WSW,17.3,23.0,N/A,,Mostly Cloudy,250,2012-10-18 13:55:00
9:15 AM,51.8,30.2,44,29.43,10.0,West,15.0,21.9,N/A,,Mostly Cloudy,260,2012-10-18 14:15:00
9:35 AM,50.0,35.6,58,29.44,10.0,West,18.4,27.6,N/A,,Overcast,260,2012-10-18 14:35:00
9:55 AM,48.2,37.4,66,29.44,10.0,West,19.6,24.2,N/A,,Drizzle,260,2012-10-18 14:55:00
10:15 AM,48.2,39.2,71,29.44,5.0,West,16.1,26.5,N/A,,Drizzle,260,2012-10-18 15:15:00
10:35 AM,46.4,39.2,76,29.44,7.0,WSW,11.5,23.0,N/A,,Light Drizzle,240,2012-10-18 15:35:00
10:55 AM,46.4,39.2,76,29.43,7.0,SW,18.4,21.9,N/A,,Overcast,230,2012-10-18 15:55:00
11:15 AM,46.4,39.2,76,29.43,10.0,WSW,15.0,26.5,0.01,,Light Drizzle,240,2012-10-18 16:15:00
11:35 AM,48.2,39.2,71,29.43,7.0,WSW,16.1,21.9,0.01,,Light Drizzle,240,2012-10-18 16:35:00
11:55 AM,48.2,39.2,71,29.43,7.0,WSW,21.9,29.9,0.01,,Drizzle,240,2012-10-18 16:55:00
12:15 PM,48.2,41.0,76,29.43,7.0,SW,16.1,-,0.01,,Drizzle,230,2012-10-18 17:15:00
12:35 PM,48.2,42.8,82,29.43,7.0,SW,11.5,18.4,0.02,Rain,Rain,230,2012-10-18 17:35:00
12:55 PM,48.2,42.8,82,29.43,7.0,SW,16.1,20.7,0.03,,Drizzle,230,2012-10-18 17:55:00
1:15 PM,48.2,42.8,82,29.43,5.0,SW,12.7,19.6,0.01,,Drizzle,230,2012-10-18 18:15:00
1:35 PM,48.2,42.8,82,29.42,7.0,SW,13.8,24.2,0.02,,Drizzle,230,2012-10-18 18:35:00
1:55 PM,48.2,42.8,82,29.42,7.0,West,20.7,28.8,0.03,,Drizzle,260,2012-10-18 18:55:00
2:15 PM,48.2,42.8,82,29.42,5.0,WSW,18.4,24.2,N/A,,Light Drizzle,250,2012-10-18 19:15:00
2:35 PM,48.2,42.8,82,29.42,7.0,WSW,15.0,21.9,0.01,,Drizzle,250,2012-10-18 19:35:00
2:55 PM,46.4,41.0,81,29.43,5.0,WSW,20.7,35.7,0.02,,Drizzle,250,2012-10-18 19:55:00
3:15 PM,48.2,41.0,76,29.43,7.0,SW,18.4,32.2,0.01,,Drizzle,230,2012-10-18 20:15:00
3:35 PM,46.4,41.0,81,29.44,10.0,WSW,17.3,24.2,0.02,,Drizzle,240,2012-10-18 20:35:00
3:55 PM,46.4,41.0,81,29.44,7.0,WSW,18.4,28.8,0.03,,Drizzle,240,2012-10-18 20:55:00
4:15 PM,46.4,41.0,81,29.44,5.0,WSW,16.1,26.5,N/A,,Drizzle,240,2012-10-18 21:15:00
4:35 PM,46.4,41.0,81,29.43,5.0,SW,18.4,25.3,N/A,Rain,Light Rain,230,2012-10-18 21:35:00
4:55 PM,46.4,41.0,81,29.43,7.0,SW,16.1,23.0,0.01,Rain,Light Rain,230,2012-10-18 21:55:00
5:15 PM,46.4,41.0,81,29.43,5.0,SW,16.1,21.9,0.01,Rain,Rain,230,2012-10-18 22:15:00
5:35 PM,46.4,41.0,81,29.43,7.0,SW,11.5,25.3,0.02,,Light Drizzle,230,2012-10-18 22:35:00
5:55 PM,46.4,41.0,81,29.43,5.0,SW,15.0,23.0,0.03,,Drizzle,230,2012-10-18 22:55:00
6:15 PM,46.4,41.0,81,29.42,7.0,SW,15.0,20.7,0.01,Rain,Rain,230,2012-10-18 23:15:00
6:35 PM,46.4,41.0,81,29.42,10.0,SW,15.0,-,0.02,,Drizzle,220,2012-10-18 23:35:00
6:55 PM,46.4,41.0,81,29.42,7.0,SW,11.5,-,0.02,,Drizzle,220,2012-10-18 23:55:00
7:15 PM,46.4,41.0,81,29.41,7.0,SW,15.0,18.4,N/A,,Drizzle,220,2012-10-19 00:15:00
7:35 PM,46.4,41.0,81,29.41,10.0,SW,12.7,18.4,0.01,,Drizzle,230,2012-10-19 00:35:00
7:55 PM,46.4,41.0,81,29.41,10.0,SW,13.8,19.6,0.01,,Light Drizzle,230,2012-10-19 00:55:00
8:35 PM,46.4,41.0,81,29.41,10.0,SW,10.4,-,0.01,Rain,Light Rain,230,2012-10-19 01:35:00
8:55 PM,46.4,41.0,81,29.41,10.0,SW,9.2,16.1,0.02,,Drizzle,230,2012-10-19 01:55:00
9:15 PM,46.4,42.8,87,29.41,10.0,WSW,9.2,-,N/A,,Drizzle,240,2012-10-19 02:15:00
9:35 PM,46.4,42.8,87,29.41,10.0,WSW,9.2,-,N/A,,Drizzle,240,2012-10-19 02:35:00
9:55 PM,46.4,42.8,87,29.41,10.0,WSW,9.2,-,0.01,,Light Drizzle,250,2012-10-19 02:55:00
10:15 PM,46.4,42.8,87,29.41,3.0,WSW,8.1,-,N/A,,Haze,250,2012-10-19 03:15:00
10:35 PM,46.4,42.8,87,29.41,10.0,WSW,6.9,-,N/A,,Overcast,250,2012-10-19 03:35:00
10:55 PM,48.2,42.8,82,29.41,3.0,West,8.1,-,N/A,,Haze,260,2012-10-19 03:55:00